Weather History for KPNA - September, 2013

Change the Weather History Date:

Tuesday, September 24, 2013

  Actual Average (KBPI) Record (KBPI)
Temperature  
Mean Temperature 46 °F 46 °F  
Max Temperature 66 °F 65 °F 81 °F (2001)
Min Temperature 26 °F 29 °F 16 °F (1984)
Degree Days  
Heating Degree Days 19 18  
Month to date heating degree days 339  
Since 1 July heating degree days 632  
Cooling Degree Days 0 0  
Month to date cooling degree days 0  
Year to date cooling degree days 35  
Moisture  
Dew Point 27 °F    
Average Humidity 57    
Maximum Humidity 100    
Minimum Humidity 18    
Precipitation  
Precipitation 0.00 in 0.03 in 0.43 in (2007)
Month to date precipitation 0.63  
Year to date precipitation 5.29  
Sea Level Pressure  
Sea Level Pressure 30.06 in    
Wind  
Wind Speed 6 mph (WSW)    
Max Wind Speed 28 mph    
Max Gust Speed 34 mph    
Visibility 10 miles    
Events      
T = Trace of Precipitation, MM = Missing Value Source: NWS Daily Summary

Daily Weather History Graph

Daily Weather History Graph

Search for Another Location

Airport or City:

Trip Planner

Search our weather history database for the weather conditions in past years. The results will help you decide how hot, cold, wet, or windy it might be!

Date:

Astronomy

Sep. 24, 2013 Rise Set
Actual Time 7:09 AM MDT 7:12 PM MDT
Civil Twilight 6:40 AM MDT 7:40 PM MDT
Nautical Twilight 6:07 AM MDT 8:13 PM MDT
Astronomical Twilight 5:34 AM MDT 8:47 PM MDT
Moon 10:25 PM MDT (9/24) 12:33 PM MDT (9/24)
Length of Visible Light 12h 59m
Length of Day
12h 03m
Waning Gibbous, 72% of the Moon is Illuminated
Sep 24
Waning Gibbous
Sep 26
Last Quarter
Oct 4
New
Oct 11
First Quarter
Oct 18
Full

Hourly Weather History & Observations

Time (MDT) Temp. Windchill Dew Point Humidity Pressure Visibility Wind Dir Wind Speed Gust Speed Precip Events Conditions
12:15 AM 33.8 °F 28.6 °F 30.2 °F 87% 30.19 in 10.0 mi NW 5.8 mph - N/A   Clear
12:35 AM 32.0 °F - 30.2 °F 93% 30.19 in 10.0 mi Calm Calm - N/A   Clear
12:55 AM 32.0 °F 26.4 °F 28.4 °F 87% 30.19 in 10.0 mi WNW 5.8 mph - N/A   Clear
1:35 AM 32.0 °F 28.7 °F 28.4 °F 87% 30.20 in 10.0 mi WNW 3.5 mph - N/A   Clear
1:55 AM 30.2 °F 26.7 °F 30.2 °F 100% 30.21 in 10.0 mi West 3.5 mph - N/A   Clear
2:15 AM 30.2 °F 25.4 °F 28.4 °F 93% 30.21 in 10.0 mi West 4.6 mph - N/A   Clear
2:35 AM 30.2 °F 26.7 °F 28.4 °F 93% 30.21 in 10.0 mi West 3.5 mph - N/A   Clear
2:55 AM 30.2 °F 24.3 °F 28.4 °F 93% 30.21 in 10.0 mi WNW 5.8 mph - N/A   Clear
3:35 AM 32.0 °F 27.5 °F 28.4 °F 87% 30.20 in 10.0 mi NW 4.6 mph - N/A   Clear
3:55 AM 30.2 °F 25.4 °F 28.4 °F 93% 30.20 in 10.0 mi NW 4.6 mph - N/A   Clear
4:15 AM 28.4 °F - 28.4 °F 100% 30.19 in 10.0 mi Calm Calm - N/A   Clear
4:35 AM 28.4 °F 23.3 °F 28.4 °F 100% 30.20 in 10.0 mi West 4.6 mph - N/A   Clear
4:55 AM 28.4 °F 23.3 °F 28.4 °F 100% 30.20 in 10.0 mi West 4.6 mph - N/A   Clear
5:15 AM 28.4 °F 24.6 °F 28.4 °F 100% 30.19 in 10.0 mi WNW 3.5 mph - N/A   Clear
5:35 AM 28.4 °F 23.3 °F 26.6 °F 93% 30.19 in 10.0 mi West 4.6 mph - N/A   Clear
5:55 AM 26.6 °F 22.6 °F 26.6 °F 100% 30.19 in 10.0 mi West 3.5 mph - N/A   Clear
6:15 AM 26.6 °F 22.6 °F 26.6 °F 100% 30.19 in 10.0 mi West 3.5 mph - N/A   Clear
6:35 AM 26.6 °F 22.6 °F 26.6 °F 100% 30.19 in 10.0 mi West 3.5 mph - N/A   Clear
6:55 AM 26.6 °F - 26.6 °F 100% 30.19 in 10.0 mi Calm Calm - N/A   Clear
7:15 AM 26.6 °F 21.2 °F 26.6 °F 100% 30.20 in 10.0 mi WNW 4.6 mph - N/A   Clear
7:35 AM 28.4 °F - 26.6 °F 93% 30.19 in 10.0 mi Calm Calm - N/A   Clear
7:55 AM 30.2 °F 26.7 °F 28.4 °F 93% 30.20 in 10.0 mi NW 3.5 mph - N/A   Clear
8:15 AM 32.0 °F 28.7 °F 30.2 °F 93% 30.19 in 10.0 mi WNW 3.5 mph - N/A   Clear
8:35 AM 35.6 °F - 30.2 °F 81% 30.19 in 10.0 mi Calm Calm - N/A   Scattered Clouds
8:55 AM 37.4 °F - 30.2 °F 75% 30.19 in 10.0 mi Calm Calm - N/A   Scattered Clouds
9:15 AM 42.8 °F 41.1 °F 32.0 °F 66% 30.19 in 10.0 mi SE 3.5 mph - N/A   Scattered Clouds
9:35 AM 44.6 °F 41.4 °F 32.0 °F 61% 30.18 in 10.0 mi SE 5.8 mph - N/A   Clear
9:55 AM 48.2 °F - 32.0 °F 54% 30.18 in 10.0 mi Calm Calm - N/A   Clear
10:15 AM 50.0 °F - 32.0 °F 50% 30.17 in 10.0 mi ESE 6.9 mph - N/A   Clear
10:35 AM 51.8 °F - 32.0 °F 47% 30.16 in 10.0 mi SE 8.1 mph - N/A   Clear
10:55 AM 53.6 °F - 32.0 °F 44% 30.16 in 10.0 mi SSE 6.9 mph - N/A   Clear
11:15 AM 55.4 °F - 32.0 °F 41% 30.15 in 10.0 mi SE 8.1 mph - N/A   Clear
11:55 AM 59.0 °F - 30.2 °F 34% 30.13 in 10.0 mi SSE 8.1 mph 18.4 mph N/A   Scattered Clouds
12:15 PM 57.2 °F - 30.2 °F 36% 30.11 in 10.0 mi South 8.1 mph 18.4 mph N/A   Scattered Clouds
12:35 PM 59.0 °F - 28.4 °F 31% 30.11 in 10.0 mi South 11.5 mph 16.1 mph N/A   Scattered Clouds
12:55 PM 59.0 °F - 30.2 °F 34% 30.09 in 10.0 mi SSE 6.9 mph 17.3 mph N/A   Mostly Cloudy
1:15 PM 60.8 °F - 28.4 °F 29% 30.07 in 10.0 mi SE 11.5 mph 20.7 mph N/A   Clear
1:35 PM 62.6 °F - 28.4 °F 27% 30.05 in 10.0 mi South 12.7 mph 18.4 mph N/A   Clear
1:55 PM 62.6 °F - 26.6 °F 26% 30.03 in 10.0 mi South 15.0 mph 19.6 mph N/A   Clear
2:15 PM 64.4 °F - 26.6 °F 24% 30.01 in 10.0 mi South 12.7 mph 19.6 mph N/A   Clear
2:35 PM 62.6 °F - 26.6 °F 26% 30.00 in 10.0 mi SSE 16.1 mph 26.5 mph N/A   Clear
2:55 PM 64.4 °F - 24.8 °F 22% 29.98 in 10.0 mi South 19.6 mph 25.3 mph N/A   Clear
3:15 PM 64.4 °F - 24.8 °F 22% 29.97 in 10.0 mi South 16.1 mph 27.6 mph N/A   Clear
3:35 PM 66.2 °F - 24.8 °F 21% 29.95 in 10.0 mi South 19.6 mph 29.9 mph N/A   Clear
3:55 PM 66.2 °F - 24.8 °F 21% 29.94 in 10.0 mi South 16.1 mph 24.2 mph N/A   Clear
4:15 PM 66.2 °F - 23.0 °F 19% 29.93 in 10.0 mi South 17.3 mph 26.5 mph N/A   Clear
4:35 PM 64.4 °F - 21.2 °F 19% 29.92 in 10.0 mi South 12.7 mph 23.0 mph N/A   Clear
4:55 PM 66.2 °F - 21.2 °F 18% 29.91 in 10.0 mi SSW 17.3 mph 27.6 mph N/A   Clear
5:15 PM 66.2 °F - 21.2 °F 18% 29.90 in 10.0 mi SSW 20.7 mph 28.8 mph N/A   Clear
5:35 PM 64.4 °F - 21.2 °F 19% 29.90 in 10.0 mi SSW 16.1 mph 31.1 mph N/A   Clear
5:55 PM 64.4 °F - 21.2 °F 19% 29.90 in 10.0 mi SSW 13.8 mph 21.9 mph N/A   Scattered Clouds
6:15 PM 64.4 °F - 19.4 °F 18% 29.91 in 10.0 mi SW 12.7 mph 26.5 mph N/A   Mostly Cloudy
6:35 PM 62.6 °F - 19.4 °F 19% 29.92 in 10.0 mi WSW 19.6 mph 25.3 mph N/A   Overcast
6:55 PM 60.8 °F - 19.4 °F 20% 29.93 in 10.0 mi West 27.6 mph 34.5 mph N/A   Overcast
7:15 PM 59.0 °F - 21.2 °F 23% 29.89 in 10.0 mi SW 4.6 mph 23.0 mph N/A   Mostly Cloudy
7:35 PM 59.0 °F - 21.2 °F 23% 29.91 in 10.0 mi West 10.4 mph - N/A   Scattered Clouds
7:55 PM 59.0 °F - 21.2 °F 23% 29.92 in 10.0 mi WSW 9.2 mph 18.4 mph N/A   Clear
8:15 PM 55.4 °F - 23.0 °F 29% 29.91 in 10.0 mi WSW 8.1 mph - N/A   Clear
8:35 PM 53.6 °F - 24.8 °F 33% 29.90 in 10.0 mi WNW 4.6 mph - N/A   Clear
8:55 PM 51.8 °F - 26.6 °F 38% 29.90 in 10.0 mi Calm Calm - N/A   Clear
9:15 PM 46.4 °F 45.2 °F 28.4 °F 50% 29.90 in 10.0 mi NW 3.5 mph - N/A   Clear
9:35 PM 44.6 °F - 28.4 °F 53% 29.89 in 10.0 mi Calm Calm - N/A   Clear
9:55 PM 44.6 °F 42.2 °F 28.4 °F 53% 29.89 in 10.0 mi West 4.6 mph - N/A   Mostly Cloudy
10:15 PM 44.6 °F 41.4 °F 28.4 °F 53% 29.90 in 10.0 mi WNW 5.8 mph - N/A   Mostly Cloudy
10:35 PM 42.8 °F - 30.2 °F 61% 29.91 in 10.0 mi Calm Calm - N/A   Clear
10:55 PM 42.8 °F 39.3 °F 30.2 °F 61% 29.90 in 10.0 mi NW 5.8 mph - N/A   Scattered Clouds
11:15 PM 42.8 °F 39.3 °F 32.0 °F 66% 29.90 in 10.0 mi West 5.8 mph - N/A   Mostly Cloudy
11:35 PM 41.0 °F 37.1 °F 30.2 °F 65% 29.90 in 10.0 mi WNW 5.8 mph - N/A   Scattered Clouds
11:55 PM 42.8 °F 40.1 °F 32.0 °F 66% 29.89 in 10.0 mi WNW 4.6 mph - N/A   Scattered Clouds